STARLINK-3751, 52289

Orbit data source: Space-Track

STARLINK-3751, 52289 is a payload satellite owned by SpaceX/Seattle (US) in LEO that was launched on Thu, 21 Apr 2022 UTC via an FALCON 9 launch vehicle from the Air Force Eastern Test Range (AFETR). Payload-class satellites include a variety of spacecraft equipped with specific instruments for various scientific and technological missions. These include communications satellites like Starlink; space stations such as the ISS; scientific satellites like the Hubble; Earth observation satellites from companies like Planet Labs, Umbra, and HawkEye 360; GPS; miniature CubeSats for education and research; and military/defense satellites.

Loading next visibility...
Identifier
52289, 2022-041AE
Orbit
LEO
Country
Flag of USUS
Related business
Manufacturer
SpaceX/Seattle
Mission
Operational Commercial Communications
Bus & Motor
STARLINK, Unknown motor
Mass
297 kg wet, ~275 kg dry
Launch date (UTC)
2022-04-21 (4 years ago)
Launch vehicle
FALCON 9
Launch site
Air Force Eastern Test Range (AFETR)
Object type
Payload
Rocket body
Debris
Shape & HBR
Box + 1 Pan, 10.1 m
Radar Cross Section
11.087 m², Large (>1 m²)

Expand to show TLE details & history
Last TLE update: 7 hours ago

TLE from 7 hours ago
0 STARLINK-3751
1 52289U 22041AE  26263.57001770  .00001088  00000-0  46821-4 0  9993
2 52289  53.1567 291.4632 0001892 125.4621 234.6558 15.31712945244093
Epoch: 2026-09-20T13:40Z
TLE epoch observation values (Epoch: 2026-09-20T13:40:49.529Z)
Latitude
0.00006°
Longitude
86.79456°
Altitude
472.351 km
Speed
7.631 km/s
True Right ascension
19h 25m 51s
True Declination
0° 00' 00"
Sunlit
Object was in full shadow at epoch
Visualization orbit readout
Latitude
Unknown
Longitude
Unknown
Altitude
Unknown
Speed
Unknown
Apparent Right ascension
Unknown
Apparent Declination
Unknown
Sunlit
N/A
Visualization observer readout
Local Sidereal Time
14:00:11
Azimuth
Unknown
Elevation
Unknown
Doppler factor
Unknown
Orbital elements
Apogee altitude
472.254 km
Perigee altitude
469.663 km
Semi-major axis
6,849.096 km
Eccentricity
0.00019
Inclination
53.1567°
RAAN
291.4632°
Arg. of periapsis
125.4621°
True anomaly
234.63812°
Mean anomaly
234.6558°
Eccentric anomaly
234.64696°
Mean motion
3.82907 °/min
Orbital period
94.02 mins
BSTAR
0.000046821
Loading maneuver chart data...
Computing Atmospheric mass density...
Loading historical data...
Loading historical data...
Loading historical data...
Loading historical data...
Loading historical data...
Loading historical data...
Loading historical data...

Documentation

Showing up to 5 results
|